Address 0x0465f3a620b2fbac0c192a07bf2c1e9f3be769bd

Txn Hash Method
Block
From
To
Value [Txn Fee]
0xfdb5d3d191df396f7d5f835517fadd256d3ede0ef8fb890e122b671e0e3b73b60xf0ba84401147923972023-01-28 13:07:0720 mins ago0x0465f3a620b2fbac0c192a07bf2c1e9f3be769bdOUT 0x2b216dfa98a7e04690a291d4fc70d9848a0bfee10 ETH0
0xe117c3a5fafd845b5e6605dce386ceb3631f547586707bc995136f934fae0bb20xf0ba84401147898502023-01-28 12:41:0046 mins ago0x0465f3a620b2fbac0c192a07bf2c1e9f3be769bdOUT 0x2b216dfa98a7e04690a291d4fc70d9848a0bfee10 ETH0
0x01aa66933476d876d43ce21217eb2b0c89684cc10cf6cbfc061832558c8605a50xf0ba84401147863292023-01-28 12:04:431 hr 23 mins ago0x0465f3a620b2fbac0c192a07bf2c1e9f3be769bdOUT 0x2b216dfa98a7e04690a291d4fc70d9848a0bfee10 ETH0
0xbf8cd92d4a0dc5a6ba72602d50d192d5d35be21476344fa7b46d2c344fa67c130xf0ba84401147832472023-01-28 11:33:111 hr 54 mins ago0x0465f3a620b2fbac0c192a07bf2c1e9f3be769bdOUT 0x2b216dfa98a7e04690a291d4fc70d9848a0bfee10 ETH0
0x9a76e31102726e674be3f8517bd1099b584f2e7e690685facaaa0a21768094650xf0ba84401147804242023-01-28 11:04:022 hrs 23 mins ago0x0465f3a620b2fbac0c192a07bf2c1e9f3be769bdOUT 0x2b216dfa98a7e04690a291d4fc70d9848a0bfee10 ETH0
0x4b0fd7ff0c1c49e6bf004ec76bd1e793b2b402257c95030d3fcdf0685cbf55a80xf0ba84401147776312023-01-28 10:34:112 hrs 53 mins ago0x0465f3a620b2fbac0c192a07bf2c1e9f3be769bdOUT 0x2b216dfa98a7e04690a291d4fc70d9848a0bfee10 ETH0
0xf76b688659690415ecccc416a1bbb6b1d7349e6ba72e49cad144119bf0e432220xf0ba84401147748452023-01-28 10:04:093 hrs 23 mins ago0x0465f3a620b2fbac0c192a07bf2c1e9f3be769bdOUT 0x2b216dfa98a7e04690a291d4fc70d9848a0bfee10 ETH0
0xc7207340bab8556ffe506cf67fed5d287fb7edbc212cb9cc0134f8e3af048b8c0xf0ba84401147720022023-01-28 9:33:433 hrs 54 mins ago0x0465f3a620b2fbac0c192a07bf2c1e9f3be769bdOUT 0x2b216dfa98a7e04690a291d4fc70d9848a0bfee10 ETH0
0xa21b47a20184c6691f00058fb571bf94dff093247b324410412f9f5c03d1253a0xf0ba84401147692482023-01-28 9:04:124 hrs 23 mins ago0x0465f3a620b2fbac0c192a07bf2c1e9f3be769bdOUT 0x2b216dfa98a7e04690a291d4fc70d9848a0bfee10 ETH0
0x39905825a2957cb450b2aeaf1495386da2201c9f0c4c9b3b7f0eab328642b12c0xf0ba84401147664312023-01-28 8:34:084 hrs 53 mins ago0x0465f3a620b2fbac0c192a07bf2c1e9f3be769bdOUT 0x2b216dfa98a7e04690a291d4fc70d9848a0bfee10 ETH0
0xf95668d31527afa89a1bc39ccbbbb55bf22f8243f8f5a54c20ab84a281317f2d0xf0ba84401147636662023-01-28 8:04:285 hrs 23 mins ago0x0465f3a620b2fbac0c192a07bf2c1e9f3be769bdOUT 0x2b216dfa98a7e04690a291d4fc70d9848a0bfee10 ETH0
0x91176cc75b3725731aa7744dfbe02fdfd3ecab1c6eb3d22b32190841f67585110xf0ba84401147607382023-01-28 7:33:225 hrs 54 mins ago0x0465f3a620b2fbac0c192a07bf2c1e9f3be769bdOUT 0x2b216dfa98a7e04690a291d4fc70d9848a0bfee10 ETH0
0x368ca4952b45413303cf3f0eef9a00860c34b159dd3ca5e120083604069bf09e0xf0ba84401147580352023-01-28 7:04:216 hrs 23 mins ago0x0465f3a620b2fbac0c192a07bf2c1e9f3be769bdOUT 0x2b216dfa98a7e04690a291d4fc70d9848a0bfee10 ETH0
0x57a4b3c5a4377b95f3edd2288c5f60591f13579e540a3980df56e943324146d20xf0ba84401147552912023-01-28 6:34:486 hrs 53 mins ago0x0465f3a620b2fbac0c192a07bf2c1e9f3be769bdOUT 0x2b216dfa98a7e04690a291d4fc70d9848a0bfee10 ETH0
0x7d6613ce9ff7fea44e35967aa6ad7f610ac54d0ed0edd9b8c3251628db1051420xf0ba84401147525092023-01-28 6:04:567 hrs 23 mins ago0x0465f3a620b2fbac0c192a07bf2c1e9f3be769bdOUT 0x2b216dfa98a7e04690a291d4fc70d9848a0bfee10 ETH0
0x1cccaf7f372fa454ba97c12ca71f64e7ff52ebd41e1a306d2cd7a06e6a0fcf350xf0ba84401147496932023-01-28 5:34:437 hrs 53 mins ago0x0465f3a620b2fbac0c192a07bf2c1e9f3be769bdOUT 0x2b216dfa98a7e04690a291d4fc70d9848a0bfee10 ETH0
0xa380f7f410a95703e97e8b82115674ca4ab0fff95e238c90f39fa6fc90c18fc20xf0ba84401147468652023-01-28 5:04:158 hrs 23 mins ago0x0465f3a620b2fbac0c192a07bf2c1e9f3be769bdOUT 0x2b216dfa98a7e04690a291d4fc70d9848a0bfee10 ETH0
0x92e41e78541cd6a9cb9ca8e534c33b67cb8225f02a20a39c8dd5890ac75bb8ef0xf0ba84401147441362023-01-28 4:34:478 hrs 53 mins ago0x0465f3a620b2fbac0c192a07bf2c1e9f3be769bdOUT 0x2b216dfa98a7e04690a291d4fc70d9848a0bfee10 ETH0
0xc05dd309d4164603f88167ed4ea2222b498d65021b6b874320b84baed9b81a0e0xf0ba84401147413722023-01-28 4:05:069 hrs 22 mins ago0x0465f3a620b2fbac0c192a07bf2c1e9f3be769bdOUT 0x2b216dfa98a7e04690a291d4fc70d9848a0bfee10 ETH0
0xbf21fe157e21e66e45d3fd40ed710b59ec43d517af8aa173d4c6b2c94f932d4c0xf0ba84401147384672023-01-28 3:33:579 hrs 54 mins ago0x0465f3a620b2fbac0c192a07bf2c1e9f3be769bdOUT 0x2b216dfa98a7e04690a291d4fc70d9848a0bfee10 ETH0
0x82a751b268350ade37973fa9e9e7187305e87a6d2afd2aff8c8a066c79690fa00xf0ba84401147356672023-01-28 3:04:1410 hrs 23 mins ago0x0465f3a620b2fbac0c192a07bf2c1e9f3be769bdOUT 0x2b216dfa98a7e04690a291d4fc70d9848a0bfee10 ETH0
0x1b97039a234bb0ca7a20ec514aaab8ba4999c1d08f70c1d6f3b1daafdf42110b0xf0ba84401147339412023-01-28 2:45:3310 hrs 42 mins ago0x0465f3a620b2fbac0c192a07bf2c1e9f3be769bdOUT 0x2b216dfa98a7e04690a291d4fc70d9848a0bfee10 ETH0
0x0a18aae136d666e015fba6da2a47f0e8e43f515715b7809d7a5f8970176189380xf0ba84401147321872023-01-28 2:27:0011 hrs ago0x0465f3a620b2fbac0c192a07bf2c1e9f3be769bdOUT 0x2b216dfa98a7e04690a291d4fc70d9848a0bfee10 ETH0
0xc6b361320527ded1555a3bb31844bc3337986d3e562738ada6280c631b93f9490xf0ba84401147269242023-01-28 1:31:1811 hrs 56 mins ago0x0465f3a620b2fbac0c192a07bf2c1e9f3be769bdOUT 0x2b216dfa98a7e04690a291d4fc70d9848a0bfee10 ETH0
0xa85e4caaa45b7bf93c108b902c3efcfce40451f67cd695b3596918bd9f9373c90xf0ba84401147229092023-01-28 0:48:3412 hrs 39 mins ago0x0465f3a620b2fbac0c192a07bf2c1e9f3be769bdOUT 0x2b216dfa98a7e04690a291d4fc70d9848a0bfee10 ETH0
[ Download CSV Export 
Parent Txn Hash Block From To Value
Loading

Contract Name:
0

Compiler Version
0

Optimization Enabled:
0

Other Settings:
-NA-
Block Transaction Gas Used Reward
Age Block Fee Address BC Fee Address Voting Power Jailed Incoming
Block Uncle Number Difficulty Gas Used Reward
Loading